map of TAK home
Great Circle Mapper logo
TAK - Airport
Location
City:  Takamatsu, Shikoku, Japan
ICAO / IATA:RJOT / TAK

Details
Type:Airport (Aerodrome, Airfield)
Use:Public/Civil
Latitude:3412'51"N (34.214167)
Longitude:13400'56"E (134.015556)
Datum:WGS 1984
Elevation:607 ft (185 m)
Variation:7.42W (WMM2015 magnetic declination)
-0.07 annual change
Runways:1
Longest:8200 × 200 ft (2499 × 61 m), paved

Time
Time Zone:UTC+9
Local Time:

Weather
METAR:RJOT 291200Z 19005KT 7000 FEW025 27/24 Q1009
TAF:RJOT 291106Z 2912/3018 24005KT 7000 FEW025 SCT050

Related Locations
Nearby:
Farthest:SSMT: 12081 mi / 19442 km
Mostardas, RS, BR

Find:

   beyond  
but within

Other Information
Maps:
NOTAMs:
Links:
Sources:

  
flag of Japan   

Sectional Chart

Flight Planning
at skyvector.com

Satellite Image

Google Maps Satellite view

 

Copyright © 2004-2015 Karl L. Swartz. All rights reserved.
The Great Circle Mapper name and logo are trademarks of the Great Circle Mapper.
All other trademarks mentioned herein belong to their respective owners.
Please see credits for attibutions and further copyright information.

  Follow gcmap on Facebook Follow gcmap on Twitter Follow gcmap on Google+

hCard Microformat

Geo Microformat